Content
SEND FEEDBACK

Daily
Averages
Monthly
Summary
United States of America

LYNHURST, INDIANA


Home > North America > United States > Indiana
Elevation: 829 feet     Latitude: 39 54N     Longitude: 085 58W

WEATHER
 
SELECT A DAY
Number of Records: 202,910;   Date Range: 1/1/95 - 7/26/14
 
SHARE

PRINT THIS DATA

[ ← Previous Day ]
WEATHER ALMANAC - FEBRUARY 13, 2013
[ Next Day → ]
[ °C ]   °F
Weather ElementAverageHighLow
Temperature33.9 °F44.1 °F (3:53 pm)28 °F (1:53 am)
Dewpoint25 °F28.9 °F (11:53 pm)23 °F (2:53 pm)
Humidity71.7 %88 % (1:53 am)43 % (4:53 pm)
Barometer29.85 in29.93 in (1:53 am)29.78 in (3:53 pm)
Wind Speed3.8 mph9.2 mph (3:53 pm)
Weather ElementAverage
Visibility9 mi
Wind DirectionSSE (147.4 °)

Weather ElementTotal
Precipitation---
Heating Degree Days29 (Base 65)
Averaged from 23 records on February 13, 2013
WEATHER CONDITIONS BREAKOUT
WIND DIRECTION BREAKOUT
WEATHER BY HOUR - FEBRUARY 13, 2013
[ °C ]   °F
Local TimeTemperatureDewpointHumidityBarometerVisibilityWind DirectionWind SpeedGust SpeedPrecipitationEventsConditions
1:53 AM28.0 °F25.0 °F88 %29.93 in7.0 miCalmOvercast
2:53 AM28.0 °F25.0 °F88 %29.93 in7.0 miCalmOvercast
3:53 AM28.0 °F25.0 °F88 %29.91 in7.0 miNorth (350°)4.6 mphOvercast
4:53 AM28.0 °F25.0 °F88 %29.88 in8.0 miCalmOvercast
5:53 AM28.0 °F24.1 °F85 %29.86 in9.0 miNNE (30°)4.6 mphOvercast
6:53 AM28.0 °F24.1 °F85 %29.84 in9.0 miNNE (20°)5.8 mphMostly Cloudy
7:53 AM28.0 °F24.1 °F85 %29.86 in8.0 miNorth (350°)4.6 mphMostly Cloudy
8:53 AM28.0 °F24.1 °F85 %29.88 in8.0 miCalmClear
9:53 AM28.9 °F24.1 °F82 %29.87 in8.0 miNorth (350°)3.5 mphClear
10:53 AM30.0 °F25.0 °F82 %29.87 in8.0 miCalmClear
11:53 AM32.0 °F25.0 °F75 %29.87 in9.0 miCalmClear
12:53 PM34.0 °F25.0 °F70 %29.85 in10.0 miWNW (300°)4.6 mphClear
1:53 PM37.9 °F25.0 °F60 %29.82 in10.0 miVariable3.5 mphClear
2:53 PM41.0 °F23.0 °F49 %29.79 in10.0 miCalmClear
3:53 PM44.1 °F25.0 °F47 %29.78 in10.0 miSW (230°)9.2 mphClear
4:53 PM44.1 °F23.0 °F43 %29.79 in10.0 miWest (260°)6.9 mphClear
5:53 PM43.0 °F24.1 °F47 %29.81 in10.0 miWSW (250°)4.6 mphClear
6:53 PM39.9 °F25.0 °F55 %29.83 in10.0 miSSW (210°)4.6 mphClear
7:53 PM37.9 °F26.1 °F62 %29.84 in10.0 miSW (220°)5.8 mphClear
8:53 PM37.0 °F26.1 °F65 %29.85 in10.0 miSSW (200°)5.8 mphClear
9:53 PM36.0 °F26.1 °F67 %29.86 in10.0 miSSW (200°)5.8 mphClear
10:53 PM35.1 °F28.0 °F76 %29.85 in10.0 miSSW (210°)5.8 mphClear
11:53 PM35.1 °F28.9 °F78 %29.86 in10.0 miSSW (210°)8.1 mphClear
Hourly data recorded from KEYE, located miles away from Lynhurst, Indiana







STORIES FROM OUR PARTNERS